Regional Weather Roundup
Issued by NWS Charleston, SC

Current Version | Previous Version | Graphics & Text | Print | Product List | Glossary On
Versions: 1 2 3 4 5 6 7 8 9 10 11 12 13 14 15 16 17 18 19 20 21 22 23 24 25 26 27 28 29 30 31 32 33 34 35 36 37 38 39 40 41 42 43 44 45 46 47 48 49 50
274
ASUS42 KCHS 302128
RWRCHS

REGIONAL WEATHER ROUNDUP
NATIONAL WEATHER SERVICE CHARLESTON SC
500 PM EDT MON MAY 30 2016

NOTE: "FAIR" INDICATES FEW OR NO CLOUDS BELOW 12,000 FEET WITH NO
SIGNIFICANT WEATHER AND/OR OBSTRUCTIONS TO VISIBILITY.

NOT ALL STATIONS ARE QUALITY CONTROLLED. USE DATA WITH CAUTION...
ESPECIALLY DEWPOINT OBSERVATIONS.

SCZ027-030-031-034>040-042>050-302200-
...SOUTHEAST SOUTH CAROLINA...

CITY           SKY/WX    TMP DP  RH WIND       PRES   REMARKS
N CHARLESTON   CLOUDY    76  70  82 W9        29.86F
WATERFRONT PRK   N/A     75  71  87 NW6       29.85F
MOUNT PLEASANT MOCLDY    79  72  78 W7        29.86S
JOHNS ISLAND   MOCLDY    79  72  78 W9        29.86F
PINOPOLIS      NOT AVBL
MONCKS CORNER  CLOUDY    70  68  94 CALM      29.87R
SUMMERVILLE    CLOUDY    77  72  83 NW8       29.88S
BEAUFORT MCAS  CLOUDY    80  71  74 N8        29.89F
BEAUFORT ARPT  FAIR      79  68  69 N9        29.88F
HILTON HEAD IS MOSUNNY   84  72  65 N14       29.90S
WALTERBORO     CLOUDY    77  73  88 NW6       29.90S
ALLENDALE      MOCLDY    84  68  58 N5        29.88S

...SOUTHERN MIDLANDS AND PEE DEE...

CITY           SKY/WX    TMP DP  RH WIND       PRES   REMARKS
GEORGETOWN     CLOUDY    73  70  88 S10       29.87S
KINGSTREE      CLOUDY    72  70  94 CALM      29.87S
ORANGEBURG     LGT RAIN  75  71  87 NW3       29.89F
BARNWELL       MOCLDY    88  73  62 N5        29.89S HX  96
AIKEN          FAIR      82  64  54 NW9       29.93S
MANNING        CLOUDY    72  70  94 N9        29.87S
COLUMBIA       PTSUNNY   86  66  51 VRB6      29.87F
SUMTER         LGT RAIN  74  70  88 N12       29.87R
FLORENCE       CLOUDY    76  71  85 NW6       29.87S
MYRTLE BEACH   PTSUNNY   79  64  61 S12       29.89F
N MYRTLE BEACH PTSUNNY   78  70  76 SE10      29.87F

$$

GAZ063-065-086>088-099>101-113>116-118-119-134>141-150-302200-
...SOUTHEAST GEORGIA...

CITY           SKY/WX    TMP DP  RH WIND       PRES   REMARKS
SAVANNAH ARPT  PTSUNNY   87  66  49 NW14      29.89S
HUNTER AAF     MOSUNNY   86  71  60 NW9       29.87R HX  91
FORT STEWART   SUNNY     90  63  40 N7        29.86F HX  91
STATESBORO     SUNNY     86  69  56 N9        29.90S
SYLVANIA       CLEAR     88  69  54 N9        29.90S HX  92
CLAXTON        FAIR      89  67  48 W8        29.90S HX  92

...CSRA...CENTRAL AND FAR SOUTHEAST GEORGIA...

CITY           SKY/WX    TMP DP  RH WIND       PRES   REMARKS
THOMSON        MOSUNNY   91  67  43 N7        29.94F HX  94
AUGUSTA-BUSH   MOSUNNY   88  63  43 N8        29.88F
AUGUSTA-DANIEL MOSUNNY   89  63  41 NW9       29.91F HX  90
SWAINSBORO     FAIR      90  61  37 N6        29.91F
VIDALIA        MOSUNNY   90  61  37 N7        29.91S
EASTMAN        FAIR      93  59  32 N6        29.93F HX  92
HAZLEHURST     FAIR      92  57  30 NW6       29.89S HX  90
ALMA           MOSUNNY   92  62  36 NW6       29.89F HX  92
WAYCROSS       MOSUNNY   93  63  37 N10       29.88F HX  94
JESUP          MOCLDY    86  61  42 NW9G17    29.89S
BAXLEY         FAIR      91  61  35 N8        29.89F HX  91
BRUNSWICK      SUNNY     97  63  32 W5        29.88F HX  98
SAINT SIMONS   MOSUNNY   91  61  36 VRB3      29.87F HX  91

$$

SCZ027-028-034-036>038-045-046-048>050-GAZ119-141-302200-
...LAKE AND SUPPLEMENTAL COASTAL OBSERVATIONS...

STATION/POSITION TIME  TEMP    WIND        PRES    WAVE   SWELL
                       AIR SEA DIR/SP/G            HT/PER HT/PER/DIR
                 (UTC) (F)     (DEG/KT/KT) (MB)    (FT/S) (FT/S/D)
WINYAH BAY       2000   75     160/ 12     1010.0
LAKE MURRAY      2000   83     340/  1/  6 1011.5F
ACE BASIN NERRS  2000   77     320/  4     1012.0F
FORT PULASKI     2100   83 76  320/ 10/ 13 1012.3S
SAPELO ISLAND    2100   91     300/  7     1012.0S

$$

ANZ835-935-AMZ111-154-330-350-352-354-370-450-454-472-302200-
...C-MAN AND BUOY OBSERVATIONS...

STATION/POSITION TIME  TEMP    WIND        PRES    WAVE   SWELL
                       AIR SEA DIR/SP/G            HT/PER HT/PER/DIR
                 (UTC) (F)     (DEG/KT/KT) (MB)    (FT/S) (FT/S/D)
BUOY 41004       2050   73 78  220/ 12/ 14 1011.3F   4/ 8   3/ 8
BUOY 41008       2050   80 78  130/  4/  4 1012.0F   2/ 8   2/100/ 8
FOLLY BEACH CMAN 2100   76     300/  8/ 11 1011.6F
CAPERS NEARSHORE 2108   75 76  250/  6/ 10 1011.0F
FRIPP NEARSHORE  2108   76 76  340/ 12/ 17 1011.3S


STATION/POSITION TIME  TEMP    WIND        PRES    WAVE   SWELL
                       AIR SEA DIR/SP/G            HT/PER HT/PER/DIR
                 (UTC) (F)     (DEG/KT/KT) (MB)    (FT/S) (FT/S/D)
5E ST. MARYS GA  2101      80                N/A     2/ 8
FRYING PAN BUOY  2100   77 78  170/ 10/ 12 1011.4F
BUOY 41025       2050   78 80  160/ 21/ 25 1013.7    7/ 8   2/280/19
CAPE LOOKOUT NC  2100   75      60/  5/  7 1013.2F
BUOY 41002       2050   76 76  180/ 10/ 12 1014.5F   6/ 8   5/100/ 8
BUOY 41010       2020   79 80  200/ 10/ 12 1014.2F
ST AUGUSTINE FL  2100   81 82  130/  9/ 10 1013.2F


$$




USA.gov is the U.S. government's official web portal to all federal, state and local government web resources and services.